Regional Weather Roundup
Issued by NWS Burlington, VT

Home | Current Version | Previous Version | Graphics & Text | Print | Product List | Glossary On
Versions: 1 2 3 4 5 6 7 8 9 10 11 12 13 14 15 16 17 18 19 20 21 22 23 24 25 26 27 28 29 30 31 32 33 34 35 36 37 38 39 40 41 42 43 44 45 46 47 48 49 50
000
ASUS41 KBTV 051110
RWRBTV
VERMONT REGIONAL WEATHER ROUNDUP
NATIONAL WEATHER SERVICE BURLINGTON VT
600 AM EST MON DEC 05 2016

NOTE: "FAIR" INDICATES FEW OR NO CLOUDS BELOW 12,000 FEET WITH NO
SIGNIFICANT WEATHER AND/OR OBSTRUCTIONS TO VISIBILITY.

* THESE REPORTS ARE NOT UNDER NWS QUALITY CONTROL AND/OR DO NOT
  REPORT WEATHER SUCH AS PRECIPITATION AND FOG.

VTZ001>019-051200-
_____VERMONT_____


CITY           SKY/WX    TMP DP  RH WIND       PRES   REMARKS
BURLINGTON     LGT SNOW  27  24  89 S9        30.01R VSB 3/4 WCI  18
MONTPELIER     CLOUDY    24  19  81 S5        30.04R WCI  18
MORRISVILLE    CLOUDY    22  19  89 S3        30.04R
ST. JOHNSBURY*   N/A     20  17  88 MISG      30.03F
LYNDONVILLE*   FAIR      17  15  93 CALM      30.02F
MIDDLEBURY*    LGT SNOW  27  27 100 S7        30.00F VSB 3/4 WCI  20
RUTLAND*       LGT SNOW  26  24  92 SE9       30.01S VSB 1   WCI  17
SPRINGFIELD    SNOW      24  21  88 CALM      30.06S VSB 1/2
HIGHGATE*      CLOUDY    26  21  80 SE6       30.00S WCI  19
NEWPORT*       FAIR      19  17  93 SW3       30.00F
BENNINGTON     LGT SNOW  30  24  78 SE8       29.98R WCI  22
SUTTON*          N/A     18 N/A N/A MISG        N/A

_____LAKE CHAMPLAIN_____


CITY           SKY/WX    TMP DP  RH WIND       PRES   REMARKS
BURTON ISLAND*   N/A     32  25  74 SE13        N/A  WCI  22
COLCHESTER RF*   N/A     32  32 100 S22         N/A  WCI  19
DIAMOND ISL*     N/A     28  28 100 S13         N/A  WCI  18

$$

NYZ007-026>031-035-052-083-087-051200-
_____NORTHERN NEW YORK_____


CITY           SKY/WX    TMP DP  RH WIND       PRES   REMARKS
PLATTSBURGH    SNOW      28  26  92 S10       29.99S VSB 1/2 WCI  19
SARANAC LAKE   LGT SNOW  22  19  89 E5        29.85F FOG     WCI  16
MASSENA        SNOW      27  24  89 NE12      29.93F VSB 1/2 WCI  17
OGDENSBURG*    LGT SNOW  28  27  93 E6        29.86F WCI  22
POTSDAM*       LGT SNOW  27  27 100 E5        29.88F WCI  21
WATERTOWN      LGT SNOW  34  30  85 S6        29.82F FOG     WCI  29
FT DRUM        LGT SNOW  29  26  88 SE15      29.80F FOG     WCI  18
ALBANY         LGT SNOW  29  25  85 CALM      30.00F VSB 1
GLENS FALLS    LGT SNOW  27  23  85 NE3       30.00F VSB 1

$$
NHZ002-005-011-051200-
_____NEW HAMPSHIRE_____


CITY           SKY/WX    TMP DP  RH WIND       PRES   REMARKS
LEBANON        LGT SNOW  25  22  88 CALM      30.05R FOG
KEENE          LGT SNOW  27  25  93 NE3       30.06R FOG
MT WASHINGTON  CLOUDY    16 -11  29 S29         N/A  WCI  -4
PLYMOUTH         N/A     23  20  88 CALM      30.07F
WHITEFIELD     CLOUDY    19  14  81 CALM      30.00F

$$

_____REGIONAL QUEBEC LOCATIONS_____


CITY           SKY/WX    TMP DP  RH WIND       PRES   REMARKS
MONTREAL       CLOUDY    25  19  80 NE8       30.00F WCI  16
QUEBEC CITY    CLOUDY    12   7  79 N3        30.08F
SHERBROOKE     CLOUDY    16  12  86 E3        30.01F

_____REGIONAL ONTARIO LOCATIONS_____


CITY           SKY/WX    TMP DP  RH WIND       PRES   REMARKS
OTTAWA         LGT SNOW  25  25 100 E14       29.89F VSB 3/4 WCI  13

______KEY______
VSB  - VISIBILITY IN MILES
WCI  - WIND CHILL INDEX
HX   - HEAT INDEX
$$
NNNN




USA.gov is the U.S. government's official web portal to all federal, state and local government web resources and services.